Location: Mentone
(34.5413°N, 85.5351°W)
Time: 12:37:10
(UTC-05:00)

Transit 2A Rocket - Visible Passes

Search period start: 23 April 2018 00:00
Search period end: 03 May 2018 00:00
Orbit: 591 x 912 km, 66.7° (Epoch: 22 April)

Date Brightness Start Highest point End Pass type
(mag) Time Alt. Az. Time Alt. Az. Time Alt. Az.
23 Apr 4.7 03:43:33 10° NNW 03:47:34 68° N 03:47:34 68° N visible
24 Apr 6.4 03:01:21 10° N 03:03:50 27° NNE 03:03:50 27° NNE visible
25 Apr 7.3 02:19:32 10° N 02:21:04 16° NNE 02:21:04 16° NNE visible
27 Apr 7.5 02:36:20 10° NNW 02:36:25 10° NNW 02:36:25 10° NNW visible
28 Apr 7.6 01:54:15 10° N 01:54:26 11° N 01:54:26 11° N visible
02 May 7.8 00:47:11 10° N 00:47:12 10° N 00:47:12 10° N visible
